| time (UTC) | temp C | wind direction | speed KPH | gust KPH | rain 1hr cm | rain 24hr cm | rain mn cm | humidity % | barometer mb |
| 20260504184551 | 26 | 160 | 6.4 | 16.1 | 0.00 | 0.00 | 0.00 | 49 | 1010.2 |
| 20260504183059 | 26 | 201 | 4.8 | 14.5 | 0.00 | 0.00 | 0.00 | 49 | 1010.3 |
| 20260504181558 | 26 | 140 | 4.8 | 11.3 | 0.00 | 0.00 | 0.00 | 48 | 1010.3 |
| 20260504174556 | 26 | 168 | 8.0 | 17.7 | 0.00 | 0.00 | 0.00 | 47 | 1011.0 |
| 20260504173052 | 26 | 169 | 4.8 | 16.1 | 0.00 | 0.00 | 0.00 | 47 | 1011.2 |
| 20260504171555 | 26 | 243 | 3.2 | 16.1 | 0.00 | 0.00 | 0.00 | 48 | 1011.3 |
| 20260504081555 | 16 | 0 | 0.0 | 0.0 | 0.00 | 0.00 | 0.00 | 77 | 1012.5 |
| 20260504050107 | 18 | 165 | 0.0 | 3.2 | 0.00 | 0.00 | 0.00 | 69 | 1013.9 |
| 20260504044600 | 18 | 162 | 1.6 | 4.8 | 0.00 | 0.00 | 0.00 | 68 | 1013.9 |
| 20260504043055 | 18 | 167 | 3.2 | 4.8 | 0.00 | 0.00 | 0.00 | 68 | 1014.0 |
| 20260504041602 | 18 | 169 | 0.0 | 3.2 | 0.00 | 0.00 | 0.00 | 69 | 1014.0 |
| 20260504034603 | 17 | 178 | 0.0 | 1.6 | 0.00 | 0.00 | 0.00 | 69 | 1014.3 |
| 20260504033053 | 17 | 0 | 0.0 | 1.6 | 0.00 | 0.00 | 0.00 | 69 | 1014.2 |
| 20260504031558 | 17 | 0 | 0.0 | 0.0 | 0.00 | 0.00 | 0.00 | 69 | 1014.3 |
| 20260504030058 | 17 | 0 | 0.0 | 0.0 | 0.00 | 0.00 | 0.00 | 69 | 1014.3 |
| 20260504024614 | 17 | 159 | 0.0 | 0.0 | 0.00 | 0.00 | 0.00 | 69 | 1014.1 |
| 20260504023054 | 17 | 0 | 0.0 | 0.0 | 0.00 | 0.00 | 0.00 | 72 | 1014.1 |
| 20260504021555 | 17 | 0 | 0.0 | 0.0 | 0.00 | 0.00 | 0.00 | 71 | 1014.2 |
| 20260504020057 | 17 | 0 | 0.0 | 0.0 | 0.00 | 0.00 | 0.00 | 69 | 1014.1 |
| 20260504014605 | 18 | 0 | 0.0 | 0.0 | 0.00 | 0.00 | 0.00 | 67 | 1014.0 |
| 20260504013100 | 18 | 0 | 0.0 | 0.0 | 0.00 | 0.00 | 0.00 | 66 | 1013.9 |
| 20260504011600 | 20 | 0 | 0.0 | 0.0 | 0.00 | 0.00 | 0.00 | 61 | 1013.9 |
| 20260504010105 | 21 | 0 | 0.0 | 0.0 | 0.00 | 0.00 | 0.00 | 57 | 1013.8 |
| 20260504004556 | 21 | 0 | 0.0 | 1.6 | 0.00 | 0.00 | 0.00 | 55 | 1013.8 |
| 20260504003100 | 22 | 153 | 0.0 | 1.6 | 0.00 | 0.00 | 0.00 | 54 | 1013.9 |
| 20260504001551 | 22 | 176 | 0.0 | 1.6 | 0.00 | 0.00 | 0.00 | 53 | 1013.9 |
| 20260504000137 | 22 | 171 | 0.0 | 3.2 | 0.00 | 0.00 | 0.00 | 51 | 1013.9 |
| 20260503234601 | 23 | 154 | 0.0 | 4.8 | 0.00 | 0.00 | 0.00 | 50 | 1014.3 |
| 20260503233051 | 23 | 182 | 1.6 | 4.8 | 0.00 | 0.00 | 0.00 | 49 | 1014.3 |
| 20260503231552 | 23 | 150 | 0.0 | 4.8 | 0.00 | 0.00 | 0.00 | 48 | 1014.4 |
| 20260503230053 | 23 | 173 | 3.2 | 11.3 | 0.00 | 0.00 | 0.00 | 47 | 1014.3 |
| 20260503224554 | 23 | 172 | 0.0 | 3.2 | 0.00 | 0.00 | 0.00 | 51 | 1014.5 |
| 20260503223055 | 24 | 168 | 1.6 | 6.4 | 0.00 | 0.00 | 0.00 | 50 | 1014.7 |
| 20260503221555 | 24 | 169 | 3.2 | 9.7 | 0.00 | 0.00 | 0.00 | 48 | 1014.8 |
| 20260503220054 | 24 | 153 | 3.2 | 9.7 | 0.00 | 0.00 | 0.00 | 49 | 1015.0 |
| 20260503214555 | 24 | 160 | 1.6 | 9.7 | 0.00 | 0.00 | 0.00 | 48 | 1015.1 |
| 20260503213052 | 24 | 0 | 1.6 | 6.4 | 0.00 | 0.00 | 0.00 | 47 | 1015.4 |
| 20260503211604 | 25 | 136 | 3.2 | 11.3 | 0.00 | 0.00 | 0.00 | 50 | 1015.7 |
| 20260503210053 | 25 | 265 | 1.6 | 9.7 | 0.00 | 0.00 | 0.00 | 46 | 1015.9 |
| 20260503204555 | 25 | 164 | 3.2 | 16.1 | 0.00 | 0.00 | 0.00 | 45 | 1016.1 |
| 20260503203108 | 25 | 211 | 3.2 | 8.0 | 0.00 | 0.00 | 0.00 | 46 | 1016.4 |
| 20260503201613 | 25 | 207 | 3.2 | 11.3 | 0.00 | 0.00 | 0.00 | 45 | 1016.7 |
| 20260503200057 | 24 | 185 | 4.8 | 17.7 | 0.00 | 0.00 | 0.00 | 46 | 1016.9 |
| 20260503194557 | 24 | 191 | 4.8 | 8.0 | 0.00 | 0.00 | 0.00 | 47 | 1017.3 |
| 20260503193056 | 24 | 136 | 3.2 | 9.7 | 0.00 | 0.00 | 0.00 | 44 | 1017.5 |
| 20260503191553 | 23 | 228 | 1.6 | 8.0 | 0.00 | 0.00 | 0.00 | 48 | 1017.6 |
| 20260503190053 | 23 | 159 | 3.2 | 12.9 | 0.00 | 0.00 | 0.00 | 43 | 1017.9 |